Location: Caltech
(34.1382°N, 118.1253°W)
Time: 21:36:06
(UTC-08:00)

BREEZE M DEB (TANK) - Visible Passes

Search period start: 17 December 2014 00:00
Search period end: 27 December 2014 00:00
Orbit: 343 x 13806 km, 49.6° (Epoch: 15 December)

Date Brightness Start Highest point End Pass type
(mag) Time Alt. Az. Time Alt. Az. Time Alt. Az.
17 Dec 5.8 19:14:17 10° W 19:32:45 33° NNW 19:35:02 29° N visible
19 Dec 5.7 18:33:31 10° W 18:57:58 39° NNW 19:01:58 25° NNE visible
20 Dec 6.7 20:51:54 10° NW 20:54:49 15° NW 20:54:49 15° NW visible
21 Dec 5.9 17:51:23 10° WSW 18:23:03 46° NW 18:28:50 19° NNE visible
22 Dec 6.3 20:14:42 10° WNW 20:21:39 21° NNW 20:21:39 21° NNW visible
23 Dec 6.1 17:07:56 10° WSW 17:48:00 53° NW 17:55:38 12° NE visible
24 Dec 5.9 19:36:36 10° WNW 19:47:47 25° NNW 19:48:24 25° NNW visible
25 Dec 6.2 16:23:26 10° WSW 17:12:46 60° NW 17:21:37 10° NE visible
26 Dec 5.7 18:57:25 10° WNW 19:12:39 29° NNW 19:15:04 24° N visible
